Time,TemperatureF,DewpointF,PressureIn,WindDirection,WindDirectionDegrees,WindSpeedMPH,WindSpeedGustMPH,Humidity,HourlyPrecipIn,Conditions,Clouds,dailyrainin,SoftwareType,DateUTC
2013-06-19 00:02:00,77.0,71.0,29.86,SW,220,2.0,7.0,81,0.00,,,0.22,,2013-06-19 04:02:00,
2013-06-19 00:12:00,77.0,72.0,29.86,SSW,207,3.0,8.0,84,0.00,,,0.22,,2013-06-19 04:12:00,
2013-06-19 00:23:00,78.0,73.0,29.85,SSW,207,4.0,9.0,86,0.00,,,0.22,,2013-06-19 04:23:00,
2013-06-19 00:32:00,78.0,73.0,29.85,SSW,207,4.0,9.0,86,0.00,,,0.22,,2013-06-19 04:32:00,
2013-06-19 00:43:00,78.0,73.0,29.85,SSW,207,4.0,9.0,86,0.00,,,0.22,,2013-06-19 04:43:00,
2013-06-19 00:53:00,78.0,73.0,29.85,SSW,207,4.0,9.0,86,0.00,,,0.22,,2013-06-19 04:53:00,
2013-06-19 01:01:00,78.0,74.0,29.86,WSW,238,3.0,10.0,88,0.00,,,0.22,,2013-06-19 05:01:00,
2013-06-19 01:11:00,78.0,74.0,29.86,WSW,238,3.0,10.0,88,0.00,,,0.22,,2013-06-19 05:11:00,
2013-06-19 01:23:00,78.0,74.0,29.86,WSW,238,3.0,10.0,88,0.00,,,0.22,,2013-06-19 05:23:00,
2013-06-19 01:32:00,79.0,75.0,29.85,SSW,212,4.0,8.0,89,0.00,,,0.20,,2013-06-19 05:32:00,
2013-06-19 01:43:00,79.0,75.0,29.85,SSW,212,4.0,8.0,89,0.00,,,0.20,,2013-06-19 05:43:00,
2013-06-19 01:52:00,79.0,75.0,29.85,South,169,3.0,9.0,89,0.00,,,0.20,,2013-06-19 05:52:00,
2013-06-19 02:02:00,79.0,75.0,29.85,South,191,2.0,8.0,89,0.00,,,0.20,,2013-06-19 06:02:00,
2013-06-19 02:11:00,79.0,75.0,29.85,South,191,2.0,8.0,89,0.00,,,0.20,,2013-06-19 06:11:00,
2013-06-19 02:22:00,79.0,76.0,29.85,South,187,3.0,9.0,90,0.00,,,0.20,,2013-06-19 06:22:00,
2013-06-19 02:34:00,79.0,76.0,29.85,SW,214,3.0,9.0,90,0.00,,,0.19,,2013-06-19 06:34:00,
2013-06-19 02:43:00,79.0,76.0,29.85,SW,214,3.0,9.0,90,0.00,,,0.19,,2013-06-19 06:43:00,
2013-06-19 02:52:00,79.0,76.0,29.84,SE,138,2.0,9.0,90,0.00,,,0.19,,2013-06-19 06:52:00,
2013-06-19 03:01:00,79.0,76.0,29.84,SE,138,2.0,9.0,90,0.00,,,0.19,,2013-06-19 07:01:00,
2013-06-19 03:12:00,79.0,76.0,29.84,South,180,3.0,12.0,90,0.00,,,0.19,,2013-06-19 07:12:00,
2013-06-19 03:22:00,79.0,76.0,29.84,South,184,4.0,11.0,90,0.00,,,0.19,,2013-06-19 07:22:00,
2013-06-19 03:33:00,79.0,76.0,29.83,WSW,246,2.0,8.0,90,0.00,,,0.19,,2013-06-19 07:33:00,
2013-06-19 03:43:00,79.0,76.0,29.83,WSW,246,2.0,8.0,90,0.00,,,0.19,,2013-06-19 07:43:00,
2013-06-19 03:53:00,79.0,76.0,29.84,SW,221,4.0,11.0,91,0.00,,,0.19,,2013-06-19 07:53:00,
2013-06-19 04:02:00,79.0,76.0,29.84,ESE,123,4.0,10.0,91,0.00,,,0.19,,2013-06-19 08:02:00,
2013-06-19 04:11:00,79.0,76.0,29.84,ESE,123,4.0,10.0,91,0.00,,,0.19,,2013-06-19 08:11:00,
2013-06-19 04:22:00,79.0,76.0,29.84,SW,219,2.0,7.0,91,0.00,,,0.19,,2013-06-19 08:22:00,
2013-06-19 04:34:00,79.0,76.0,29.84,SW,219,2.0,7.0,91,0.00,,,0.19,,2013-06-19 08:34:00,
2013-06-19 04:43:00,79.0,76.0,29.83,South,181,5.0,10.0,91,0.00,,,0.19,,2013-06-19 08:43:00,
2013-06-19 04:54:00,79.0,76.0,29.83,South,176,3.0,10.0,91,0.00,,,0.19,,2013-06-19 08:54:00,
2013-06-19 05:02:00,79.0,76.0,29.83,South,176,3.0,10.0,91,0.00,,,0.19,,2013-06-19 09:02:00,
2013-06-19 05:12:00,79.0,76.0,29.84,WSW,249,5.0,11.0,90,0.00,,,0.19,,2013-06-19 09:12:00,
2013-06-19 05:22:00,79.0,76.0,29.84,SW,234,5.0,10.0,90,0.00,,,0.19,,2013-06-19 09:22:00,
2013-06-19 05:34:00,79.0,76.0,29.84,SW,234,5.0,10.0,90,0.00,,,0.19,,2013-06-19 09:34:00,
2013-06-19 05:44:00,78.0,74.0,29.84,West,265,4.0,11.0,89,0.00,,,0.15,,2013-06-19 09:44:00,
2013-06-19 05:53:00,78.0,75.0,29.85,West,271,6.0,12.0,90,0.00,,,0.15,,2013-06-19 09:53:00,
2013-06-19 06:02:00,78.0,75.0,29.85,West,271,6.0,12.0,90,0.00,,,0.15,,2013-06-19 10:02:00,
2013-06-19 06:12:00,78.0,75.0,29.86,WSW,254,6.0,14.0,90,0.00,,,0.15,,2013-06-19 10:12:00,
2013-06-19 06:22:00,77.0,74.0,29.86,WNW,300,5.0,12.0,90,0.00,,,0.15,,2013-06-19 10:22:00,
2013-06-19 06:33:00,77.0,74.0,29.86,WNW,300,5.0,12.0,90,0.00,,,0.15,,2013-06-19 10:33:00,
2013-06-19 06:42:00,77.0,74.0,29.87,WSW,258,5.0,12.0,90,0.00,,,0.08,,2013-06-19 10:42:00,
2013-06-19 06:53:00,77.0,74.0,29.87,West,273,4.0,10.0,90,0.00,,,0.08,,2013-06-19 10:53:00,
2013-06-19 07:02:00,77.0,74.0,29.88,NE,40,2.0,10.0,90,0.00,,,0.08,,2013-06-19 11:02:00,
2013-06-19 07:12:00,77.0,74.0,29.88,NE,40,2.0,10.0,90,0.00,,,0.08,,2013-06-19 11:12:00,
2013-06-19 07:22:00,77.0,74.0,29.88,West,267,3.0,12.0,90,0.00,,,0.08,,2013-06-19 11:22:00,
2013-06-19 07:33:00,77.0,74.0,29.88,West,267,3.0,12.0,90,0.00,,,0.08,,2013-06-19 11:33:00,
2013-06-19 07:43:00,77.0,74.0,29.88,West,266,4.0,10.0,91,0.00,,,0.08,,2013-06-19 11:43:00,
2013-06-19 07:54:00,77.0,74.0,29.89,West,273,1.0,9.0,91,0.00,,,0.08,,2013-06-19 11:54:00,
2013-06-19 08:02:00,77.0,74.0,29.90,West,267,0.0,7.0,90,0.00,,,0.08,,2013-06-19 12:02:00,
2013-06-19 08:12:00,77.0,74.0,29.90,West,267,0.0,7.0,90,0.00,,,0.08,,2013-06-19 12:12:00,
2013-06-19 08:22:00,77.0,74.0,29.90,West,266,3.0,7.0,89,0.00,,,0.08,,2013-06-19 12:22:00,
2013-06-19 08:34:00,77.0,73.0,29.91,West,277,4.0,8.0,87,0.00,,,0.08,,2013-06-19 12:34:00,
2013-06-19 08:44:00,77.0,73.0,29.91,West,277,4.0,8.0,87,0.00,,,0.08,,2013-06-19 12:44:00,
2013-06-19 08:53:00,78.0,73.0,29.91,WSW,248,2.0,7.0,86,0.00,,,0.08,,2013-06-19 12:53:00,
2013-06-19 09:02:00,78.0,73.0,29.91,WSW,248,2.0,7.0,86,0.00,,,0.08,,2013-06-19 13:02:00,
2013-06-19 09:12:00,78.0,73.0,29.91,WNW,286,2.0,8.0,85,0.00,,,0.08,,2013-06-19 13:12:00,
2013-06-19 09:22:00,78.0,73.0,29.91,West,276,4.0,9.0,85,0.00,,,0.08,,2013-06-19 13:22:00,
2013-06-19 09:33:00,78.0,73.0,29.91,West,276,4.0,9.0,85,0.00,,,0.08,,2013-06-19 13:33:00,
2013-06-19 09:43:00,78.0,73.0,29.91,West,279,5.0,9.0,85,0.00,,,0.08,,2013-06-19 13:43:00,
2013-06-19 09:54:00,78.0,73.0,29.92,WNW,286,3.0,8.0,86,0.00,,,0.08,,2013-06-19 13:54:00,
2013-06-19 10:02:00,78.0,73.0,29.92,WNW,286,3.0,8.0,86,0.00,,,0.08,,2013-06-19 14:02:00,
2013-06-19 10:12:00,78.0,73.0,29.92,WNW,284,1.0,7.0,85,0.00,,,0.08,,2013-06-19 14:12:00,
2013-06-19 10:22:00,79.0,74.0,29.92,NW,306,3.0,7.0,84,0.00,,,0.08,,2013-06-19 14:22:00,
2013-06-19 10:33:00,79.0,73.0,29.93,West,280,2.0,8.0,83,0.00,,,0.08,,2013-06-19 14:33:00,
2013-06-19 10:44:00,79.0,73.0,29.93,West,280,2.0,8.0,83,0.00,,,0.08,,2013-06-19 14:44:00,
2013-06-19 10:53:00,79.0,74.0,29.93,WNW,303,3.0,10.0,84,0.00,,,0.08,,2013-06-19 14:53:00,
2013-06-19 11:02:00,79.0,74.0,29.93,WNW,303,3.0,10.0,84,0.00,,,0.08,,2013-06-19 15:02:00,
2013-06-19 11:11:00,79.0,74.0,29.93,WNW,303,3.0,10.0,84,0.00,,,0.08,,2013-06-19 15:11:00,
2013-06-19 11:22:00,78.0,72.0,29.94,NE,49,2.0,8.0,83,0.00,,,0.08,,2013-06-19 15:22:00,
2013-06-19 11:33:00,78.0,72.0,29.94,NE,49,2.0,8.0,83,0.00,,,0.08,,2013-06-19 15:33:00,
2013-06-19 11:43:00,79.0,73.0,29.94,NW,323,2.0,7.0,82,0.00,,,0.08,,2013-06-19 15:43:00,
2013-06-19 11:53:00,79.0,73.0,29.95,WNW,284,3.0,8.0,82,0.00,,,0.08,,2013-06-19 15:53:00,
2013-06-19 12:01:00,79.0,73.0,29.95,WNW,284,3.0,8.0,82,0.00,,,0.08,,2013-06-19 16:01:00,
2013-06-19 12:11:00,79.0,73.0,29.95,NNW,345,4.0,11.0,82,0.00,,,0.08,,2013-06-19 16:11:00,
2013-06-19 12:22:00,79.0,73.0,29.95,NNW,345,4.0,11.0,82,0.00,,,0.08,,2013-06-19 16:22:00,
2013-06-19 12:34:00,79.0,73.0,29.95,NNW,345,4.0,11.0,82,0.00,,,0.08,,2013-06-19 16:34:00,
2013-06-19 12:43:00,78.0,72.0,29.96,NNW,345,4.0,10.0,82,0.00,,,0.08,,2013-06-19 16:43:00,
2013-06-19 12:53:00,78.0,72.0,29.96,NNW,327,4.0,9.0,83,0.00,,,0.08,,2013-06-19 16:53:00,
2013-06-19 13:02:00,78.0,72.0,29.96,NNW,327,4.0,9.0,83,0.00,,,0.08,,2013-06-19 17:02:00,
2013-06-19 13:12:00,78.0,72.0,29.95,NNW,327,4.0,8.0,82,0.00,,,0.08,,2013-06-19 17:12:00,
2013-06-19 13:22:00,79.0,73.0,29.95,WNW,291,4.0,8.0,81,0.00,,,0.08,,2013-06-19 17:22:00,
2013-06-19 13:34:00,79.0,73.0,29.95,WNW,291,4.0,8.0,81,0.00,,,0.08,,2013-06-19 17:34:00,
2013-06-19 13:43:00,80.0,73.0,29.95,NNW,346,7.0,11.0,79,0.00,,,0.08,,2013-06-19 17:43:00,
2013-06-19 13:53:00,80.0,72.0,29.95,NW,325,4.0,9.0,78,0.00,,,0.08,,2013-06-19 17:53:00,
2013-06-19 14:02:00,80.0,72.0,29.95,NW,325,4.0,9.0,78,0.00,,,0.08,,2013-06-19 18:02:00,
2013-06-19 14:12:00,79.0,72.0,29.95,NW,309,2.0,8.0,80,0.00,,,0.08,,2013-06-19 18:12:00,
2013-06-19 14:24:00,78.0,72.0,29.94,WNW,296,5.0,9.0,82,0.00,,,0.08,,2013-06-19 18:24:00,
2013-06-19 14:33:00,78.0,73.0,29.95,NW,323,2.0,7.0,84,0.01,,,0.09,,2013-06-19 18:33:00,
2013-06-19 14:44:00,78.0,73.0,29.95,NW,323,2.0,7.0,84,0.01,,,0.09,,2013-06-19 18:44:00,
2013-06-19 14:53:00,80.0,73.0,29.95,NE,37,1.0,6.0,79,0.01,,,0.09,,2013-06-19 18:53:00,
2013-06-19 15:01:00,81.0,73.0,29.94,NNE,32,1.0,8.0,76,0.01,,,0.09,,2013-06-19 19:01:00,
2013-06-19 15:12:00,81.0,73.0,29.94,NNE,32,1.0,8.0,76,0.01,,,0.09,,2013-06-19 19:12:00,
2013-06-19 15:22:00,80.0,72.0,29.94,North,11,2.0,8.0,76,0.01,,,0.09,,2013-06-19 19:22:00,
2013-06-19 15:32:00,80.0,72.0,29.94,SSE,167,0.0,4.0,77,0.00,,,0.09,,2013-06-19 19:32:00,
2013-06-19 15:43:00,80.0,72.0,29.94,SSE,167,0.0,4.0,77,0.00,,,0.09,,2013-06-19 19:43:00,
2013-06-19 15:53:00,80.0,72.0,29.94,East,90,1.0,7.0,77,0.00,,,0.09,,2013-06-19 19:53:00,
2013-06-19 16:02:00,80.0,72.0,29.94,East,90,1.0,7.0,77,0.00,,,0.09,,2013-06-19 20:02:00,
2013-06-19 16:11:00,79.0,72.0,29.95,North,355,1.0,8.0,78,0.00,,,0.09,,2013-06-19 20:11:00,
2013-06-19 16:22:00,78.0,71.0,29.95,NNE,18,0.0,8.0,79,0.00,,,0.09,,2013-06-19 20:22:00,
2013-06-19 16:33:00,78.0,71.0,29.95,NNE,18,0.0,8.0,79,0.00,,,0.09,,2013-06-19 20:33:00,
2013-06-19 16:42:00,78.0,71.0,29.95,NE,38,1.0,3.0,80,0.00,,,0.09,,2013-06-19 20:42:00,
2013-06-19 16:52:00,77.0,71.0,29.95,NNW,338,1.0,8.0,81,0.00,,,0.09,,2013-06-19 20:52:00,
2013-06-19 17:02:00,77.0,71.0,29.95,NNW,338,1.0,8.0,81,0.00,,,0.09,,2013-06-19 21:02:00,
2013-06-19 17:12:00,77.0,71.0,29.95,North,10,0.0,4.0,82,0.00,,,0.09,,2013-06-19 21:12:00,
2013-06-19 17:22:00,77.0,71.0,29.96,ENE,78,1.0,3.0,82,0.00,,,0.09,,2013-06-19 21:22:00,
2013-06-19 17:33:00,77.0,71.0,29.96,ENE,78,1.0,3.0,82,0.00,,,0.09,,2013-06-19 21:33:00,
2013-06-19 17:44:00,77.0,71.0,29.96,SSE,154,0.0,3.0,82,0.00,,,0.09,,2013-06-19 21:44:00,
2013-06-19 17:52:00,77.0,71.0,29.96,North,355,2.0,8.0,83,0.00,,,0.09,,2013-06-19 21:52:00,
2013-06-19 18:02:00,76.0,70.0,29.96,NNE,28,2.0,6.0,83,0.00,,,0.09,,2013-06-19 22:02:00,
2013-06-19 18:11:00,76.0,70.0,29.96,NNE,28,2.0,6.0,83,0.00,,,0.09,,2013-06-19 22:11:00,
2013-06-19 18:22:00,76.0,70.0,29.95,NNW,346,3.0,7.0,83,0.00,,,0.08,,2013-06-19 22:22:00,
2013-06-19 18:34:00,76.0,71.0,29.96,North,355,3.0,7.0,84,0.00,,,0.08,,2013-06-19 22:34:00,
2013-06-19 18:43:00,76.0,71.0,29.96,North,355,3.0,7.0,84,0.00,,,0.08,,2013-06-19 22:43:00,
2013-06-19 18:53:00,76.0,71.0,29.97,North,355,4.0,7.0,84,0.00,,,0.08,,2013-06-19 22:53:00,
2013-06-19 19:02:00,76.0,71.0,29.97,North,355,4.0,7.0,84,0.00,,,0.08,,2013-06-19 23:02:00,
2013-06-19 19:12:00,76.0,71.0,29.97,North,355,5.0,9.0,85,0.00,,,0.08,,2013-06-19 23:12:00,
2013-06-19 19:23:00,76.0,71.0,29.97,NW,313,4.0,9.0,84,0.00,,,0.08,,2013-06-19 23:23:00,
2013-06-19 19:33:00,76.0,71.0,29.97,NW,313,4.0,9.0,84,0.00,,,0.08,,2013-06-19 23:33:00,
2013-06-19 19:43:00,76.0,70.0,29.97,NNE,24,1.0,5.0,83,0.00,,,0.08,,2013-06-19 23:43:00,
2013-06-19 19:52:00,76.0,70.0,29.96,NNE,31,2.0,6.0,83,0.00,,,0.08,,2013-06-19 23:52:00,
2013-06-19 20:02:00,76.0,71.0,29.97,ESE,121,1.0,9.0,84,0.00,,,0.08,,2013-06-20 00:02:00,
2013-06-19 20:12:00,76.0,71.0,29.97,ESE,121,1.0,9.0,84,0.00,,,0.08,,2013-06-20 00:12:00,
2013-06-19 20:22:00,76.0,71.0,29.97,East,91,2.0,8.0,85,0.00,,,0.01,,2013-06-20 00:22:00,
2013-06-19 20:33:00,76.0,72.0,29.97,NNE,32,1.0,4.0,87,0.00,,,0.01,,2013-06-20 00:33:00,
2013-06-19 20:44:00,76.0,72.0,29.97,NNE,32,1.0,4.0,87,0.00,,,0.01,,2013-06-20 00:44:00,
2013-06-19 20:52:00,75.0,72.0,29.98,ENE,76,2.0,5.0,89,0.00,,,0.01,,2013-06-20 00:52:00,
2013-06-19 21:02:00,75.0,72.0,29.98,ENE,76,2.0,5.0,89,0.00,,,0.01,,2013-06-20 01:02:00,
2013-06-19 21:11:00,74.0,71.0,29.98,ESE,109,3.0,6.0,89,0.00,,,0.01,,2013-06-20 01:11:00,
2013-06-19 21:22:00,74.0,71.0,29.99,NE,38,1.0,9.0,90,0.00,,,0.01,,2013-06-20 01:22:00,
2013-06-19 21:33:00,74.0,71.0,29.99,NE,38,1.0,9.0,90,0.00,,,0.01,,2013-06-20 01:33:00,
2013-06-19 21:44:00,75.0,72.0,30.01,NE,36,1.0,12.0,90,0.00,,,0.01,,2013-06-20 01:44:00,
2013-06-19 21:53:00,75.0,72.0,30.01,NE,36,1.0,12.0,90,0.00,,,0.01,,2013-06-20 01:53:00,
2013-06-19 22:02:00,75.0,72.0,30.01,NE,36,1.0,12.0,90,0.00,,,0.01,,2013-06-20 02:02:00,
2013-06-19 22:12:00,75.0,72.0,30.01,North,5,3.0,11.0,89,0.00,,,0.01,,2013-06-20 02:12:00,
2013-06-19 22:24:00,75.0,71.0,30.01,ENE,64,2.0,5.0,87,0.00,,,0.01,,2013-06-20 02:24:00,
2013-06-19 22:34:00,75.0,71.0,30.01,ENE,64,2.0,5.0,87,0.00,,,0.01,,2013-06-20 02:34:00,
2013-06-19 22:43:00,76.0,72.0,30.02,NE,51,2.0,6.0,87,0.00,,,0.01,,2013-06-20 02:43:00,
2013-06-19 22:52:00,75.0,72.0,30.01,SSW,196,1.0,6.0,89,0.01,,,0.02,,2013-06-20 02:52:00,
2013-06-19 23:02:00,75.0,72.0,30.01,SSW,196,1.0,6.0,89,0.01,,,0.02,,2013-06-20 03:02:00,
2013-06-19 23:12:00,74.0,71.0,30.02,ESE,119,2.0,7.0,90,0.01,,,0.02,,2013-06-20 03:12:00,
2013-06-19 23:22:00,74.0,71.0,30.03,ESE,108,2.0,5.0,90,0.02,,,0.03,,2013-06-20 03:22:00,
2013-06-19 23:33:00,74.0,71.0,30.03,ESE,108,2.0,5.0,90,0.02,,,0.03,,2013-06-20 03:33:00,
2013-06-19 23:43:00,74.0,71.0,30.03,ESE,111,1.0,7.0,91,0.04,,,0.05,,2013-06-20 03:43:00,
2013-06-19 23:54:00,74.0,71.0,30.03,South,177,2.0,9.0,91,0.05,,,0.07,,2013-06-20 03:54:00,